This is the latest recevied weather packets stored in our database for station/object HB9TJM-8. If no packets are shown the sender has not sent any weather packets the latest 10 day(s).
| Time | Temp. | Humidity | Pressure | Rain* | Wind** | Luminosity | Snow |
|---|---|---|---|---|---|---|---|
| 1777037624 | 16.67° C | 24% | 1020.5 hPa | 0 mm | - | 708 W/m² | - |
| 1777037317 | 16.67° C | 24% | 1020.5 hPa | 0 mm | - | 719 W/m² | - |
| 1777037010 | 16.11° C | 31% | 1020.4 hPa | 0 mm | - | 729 W/m² | - |
| 1777036703 | 16.11° C | 29% | 1020.1 hPa | 0 mm | - | 738 W/m² | - |
| 1777036087 | 16.67° C | 34% | 1020.7 hPa | 0 mm | - | 757 W/m² | - |
| 1777035780 | 16.11° C | 34% | 1020.5 hPa | 0 mm | - | 763 W/m² | - |
| 1777035472 | 16.11° C | 33% | 1020.5 hPa | 0 mm | - | 757 W/m² | - |
| 1777035165 | 16.11° C | 33% | 1020.8 hPa | 0 mm | - | 777 W/m² | - |
| 1777034858 | 16.11° C | 31% | 1020.6 hPa | 0 mm | - | 787 W/m² | - |
| 1777034550 | 16.11° C | 35% | 1021 hPa | 0 mm | - | 794 W/m² | - |
| 1777034242 | 16.67° C | 36% | 1020.6 hPa | 0 mm | - | 796 W/m² | - |
| 1777033935 | 16.11° C | 35% | 1020.5 hPa | 0 mm | - | 806 W/m² | - |
| 1777033935 | 16.11° C | 35% | 1020.5 hPa | 0 mm | - | 806 W/m² | - |
| 1777033627 | 15.56° C | 34% | 1020.5 hPa | 0 mm | - | 806 W/m² | - |
| 1777033320 | 15.56° C | 35% | 1020.3 hPa | 0 mm | - | 809 W/m² | - |
| 1777032706 | 15.56° C | 36% | 1020.4 hPa | 0 mm | - | 824 W/m² | - |
| 1777032398 | 15.56° C | 37% | 1020.9 hPa | 0 mm | - | 821 W/m² | - |
| 1777032091 | 16.11° C | 40% | 1021 hPa | 0 mm | - | 822 W/m² | - |
| 1777031783 | 16.11° C | 35% | 1020.6 hPa | 0 mm | - | 825 W/m² | - |
| 1777031475 | 16.11° C | 36% | 1021.1 hPa | 0 mm | - | 831 W/m² | - |
| 1777031168 | 15.56° C | 40% | 1020.9 hPa | 0 mm | - | 829 W/m² | - |
| 1777030860 | 15.56° C | 40% | 1020.4 hPa | 0 mm | - | 821 W/m² | - |
| 1777030553 | 15° C | 39% | 1020.9 hPa | 0 mm | - | 826 W/m² | - |
| 1777030245 | 15.56° C | 38% | 1020.5 hPa | 0 mm | - | 814 W/m² | - |
| 1777029937 | 15° C | 43% | 1020.8 hPa | 0 mm | - | 808 W/m² | - |
* Rain latest hour (hover to see other rain measurements)
** Current wind speed in m/s (hover to see current wind gust speed)